Gold Country Challenge - Toss 21 - 31 Miles

Station: Loon Lake Helipad - T Race

Distance: 30.9 Miles    

Release: 12-Sep-2019 07:05

Weather Release: Mild Morning    Arrival: Upper 80's Today

Wind at Release:     Wind at Arrival:

Temp at Release: °    Temp at Arrival: °

Lofts: 112

Birds: 433

Clocked: 433

Release 3 Groups @ 6500' Elevation by Lake. Birds home still flying after 8:05
Drops Pos Breeder Pigeon Name Color Sex Ent Arrival Speed To Win Elg PdChamp
1 Aimhigh Loft - CA 2953-AU19-AA AIM~DEV***2953*€£¥ BC H 1 08:02:52.90 939.572 00:00:00 Yes
2 Ron Brooks - AR 1912-AU19-REB BB H 1 08:03:12.10 934.406 00:00:19 Yes
3 Jactions Loft - CA 0813-AU19-AA RC H 1 08:03:19.40 932.457 00:00:26 Yes
4 Crazy Als Lofts - CO 5579-AU19-CRAZ BBSP H 1 08:08:52.50 851.413 00:06:00 Yes
5 Mels Loft - NY 0009-IF19-MTFL PIED H 1 08:09:03.40 848.998 00:06:11 Yes
6 G & J Lofts - CA 2514-AU19-AA African Roots BB H 1 08:09:04.90 848.667 00:06:12 Yes
7 WŸŁØft - CA 13502-AU19-AA #2 BCSP C 1 08:09:07.50 848.094 00:06:15 Yes
8 Silicon Valley Syndicates - CA 19015-AU19-SVS BB H 1 08:10:06.20 835.349 00:07:13 Yes
9 Baldwin & Tilson - NC 9027-AU19-TENT 825(570)-1107(1312) BB H 1 08:10:42.30 827.700 00:07:49 Yes
10 Peters - GA 0021-AU19-PETE PETERS - 6 DC H 1 08:10:44.70 827.196 00:07:52 Yes
11 D B Loft - CA 4511-AU19-JEDD WIND JAMMER BB H 1 08:10:49.90 826.107 00:07:57 Yes
12 Quejado/Fernandez - CA 0203-AU19-TCH BCSP H 1 08:10:56.10 824.812 00:08:03 Yes
13 King Conch Loft - ON 0125-CU19-KCL BB H 1 08:11:02.30 823.522 00:08:09 Yes
14 Sierra Ranch - CA 0911-AU19-SR BB H 1 08:11:03.90 823.189 00:08:11 Yes
15 Jeff Earthman - NV 1931-AU19-JEDD 899-803 BB H 1 08:11:04.30 823.106 00:08:11 Yes
16 Quejado/Fernandez - CA 0952-AU19-QUEJ BB H 2 08:11:16.40 820.602 00:08:23 Yes
17 Cloux Loft - CO 9728-AU19-FH BB H 1 08:11:16.90 820.498 00:08:24 Yes
18 A F L - GA 0068-IF19-AFL 58 x 44 BB C 1 08:11:23.10 819.221 00:08:30 Yes
19 H & H Flying Circus - CA 0286-AU19-ML BC H 1 08:11:27.30 818.358 00:08:34 Yes
20 Tian Loft - FL 15632-AU19-ARPU BB H 1 08:11:41.20 815.515 00:08:48 Yes
21 Jimmy Zheng Loft - MS 0951-AU19-JZL BBSP H 1 08:11:44.30 814.884 00:08:51 Yes
22 Ken Chin - CA 0409-AU19-HAY BC H 1 08:11:47.40 814.254 00:08:54 Yes
23 Watson & Williams - NV 6473-AU19-JEDD BB H 1 08:11:48.10 814.111 00:08:55 Yes
24 Al Shulman - CA 2503-AU19-WSJ DC H 1 08:11:50.60 813.604 00:08:58 Yes
25 Irishsyndicatelofts - AZ 0791-IF19-IRIS BBSP H 1 08:11:53.30 813.057 00:09:00 Yes
26 Sierra Ranch - CA 0982-AU19-SR BB H 2 08:11:57.10 812.287 00:09:04 Yes
27 White Arrow Loft - IL 15804-AU19-AA BB H 1 08:12:06.50 810.391 00:09:14 Yes
28 Cruz Bros. - CA 81500-AU19-MAN BCPD H 1 08:12:08.60 809.969 00:09:16 Yes
29 Do Drop In Loft - NC 0054-IF19-TRC Sleeper BB H 1 08:12:16.10 808.464 00:09:23 Yes
30 Ken Chin - CA 0062-AU19-TRAN BC C 2 08:12:16.60 808.363 00:09:24 Yes
30 Poorhouse Road Loft - VA 29728-AU19-ARPU DG BC H 1 08:12:16.60 808.363 00:09:24 Yes
32 J & M Partridge Loft - CA 1619-AU19-PASO BB C 1 08:12:19.10 807.863 00:09:26 Yes
33 Perfection Loft - KS 7083-AU19-AA BBSP H 1 08:12:19.50 807.783 00:09:27 Yes
34 H & H Flying Circus - CA 0287-AU19-ML BB H 2 08:12:21.20 807.443 00:09:28 Yes
35 Bernardo Ibanez - CA 29389-AU19-ARPU BB H 1 08:12:22.90 807.104 00:09:30 Yes
36 Frank Gonsalves - CA 0259-AU19-AA BB H 1 08:12:25.00 806.685 00:09:32 Yes
37 Cloux Loft - CO 9722-AU19-FH BC H 2 08:12:30.40 805.609 00:09:38 Yes
38 Skychargers - CA 0275-AU19-CORO BKWF H 1 08:12:38.70 803.962 00:09:46 Yes
39 A P C Loft - TX 19077-AU19-APC BB H 1 08:12:46.00 802.518 00:09:53 Yes
40 King Conch Loft - ON 0130-CU19-KCL BB H 2 08:12:51.10 801.513 00:09:58 Yes
41 A F L - GA 0066-IF19-AFL 512 x 679 BB H 2 08:12:59.90 799.784 00:10:07 Yes
42 Double Diamond Tack & Feed - CA 0015-AU19-HANG BC H 1 08:13:06.20 798.551 00:10:13 Yes
43 Crazy Als Lofts - CO 5575-AU19-CRAZ BSMK H 2 08:13:07.80 798.239 00:10:15 Yes
44 All In - CA 3306-AU19-BON BB H 1 08:13:11.80 797.458 00:10:19 Yes
45 Racing Pigeon Mall - WA 0905-AU19-RPM BLK H 1 08:13:14.40 796.952 00:10:21 Yes
46 Ken Chhi - CA 25766-AU19-AA BBWF H 1 08:13:14.50 796.932 00:10:22 Yes
47 Jeff Earthman - NV 1910-AU19-JEDD “1750-899” BB H 2 08:13:18.30 796.194 00:10:25 Yes
48 Genesis Syndicate Loft - AZ 0742-AU19-GENS BB H 1 08:13:19.90 795.883 00:10:27 Yes
49 Schmueckle Loft - TX 1056-AU19-SAL BB H 1 08:13:20.30 795.805 00:10:27 Yes
50 Tian Loft - FL 15625-AU19-ARPU BB H 2 08:13:21.70 795.534 00:10:29 Yes
51 Elton Dinga - TX 16152-AU19-AA Bolt 223 x Purdey 12005 BB C 1 08:13:23.00 795.282 00:10:30 Yes
52 G & J Lofts - CA 2509-AU19-AA Her Minnie BB H 2 08:13:27.40 794.430 00:10:34 Yes
53 Aimhigh Loft - CA 2924-AU19-AA ANCHING~CHIM*0006*** BB H 2 08:13:38.30 792.327 00:10:45 Yes
54 Bob Bostwick - CA 0927-AU19-COCO BB H 1 08:13:40.20 791.962 00:10:47 Yes
55 Cloux Loft - CO 9732-AU19-FH BB H 3 08:13:42.30 791.558 00:10:49 Yes
56 Cala's - NY 0115-AU19-CALA DC H 1 08:13:43.90 791.251 00:10:51 Yes
57 Aka Loft - CA 8112-AU19-AA DC H 1 08:13:45.40 790.963 00:10:53 Yes
58 Whiskey Hollow Loft - TX 1300-AU19-WACO BC H 1 08:13:46.30 790.791 00:10:53 Yes
59 Da-Dong - WI 1682-AU19-RAC 567-2332 BBWF H 1 08:13:52.90 789.528 00:11:00 Yes
60 Na Hoa - HI 0907-AU19-AUB BB H 1 08:13:54.10 789.299 00:11:01 Yes
61 Rob Wilson - CA 0750-AU19-AVC BBSP H 1 08:13:54.60 789.203 00:11:02 Yes
62 Nemelka Racing Pigeon Loft - UT 9086-AU19-NRPL Winkie BB H 1 08:13:56.90 788.765 00:11:04 Yes
63 Marty Hansen - CA 2104-AU19-LAKE BB H 1 08:13:59.60 788.250 00:11:07 Yes
64 G & J Lofts - CA 2501-AU19-AA Faded Glory BB H 3 08:14:00.10 788.155 00:11:07 Yes
65 Crazy Als Lofts - CO 5697-AU19-CRAZ BB H 3 08:14:00.40 788.098 00:11:07 Yes
66 Kay Eastwood - CA 0113-AU19-HANG DCSP H 1 08:14:02.20 787.755 00:11:09 Yes
67 White Arrow Loft - IL 15806-AU19-AA MLYS H 2 08:14:02.30 787.736 00:11:09 Yes
68 WŸŁØft - CA 13532-AU19-AA #2 PIED H 2 08:14:04.90 787.242 00:11:12 Yes
69 A.D.S Hilltop Family Loft - NJ 62882-AU19-ARPU Osiris X A.D.S President BCSP H 1 08:14:06.90 786.862 00:11:14 Yes
70 Silicon Valley Syndicates - CA 19156-AU19-SVS DC H 2 08:14:09.00 786.464 00:11:16 Yes
71 Evolution One Loft - UT 7706-AU19-OGN BC H 1 08:14:13.50 785.612 00:11:21 Yes
72 Don & Kathy Dusart - CA 0217-AU19-WDRP BC H 1 08:14:14.00 785.518 00:11:21 Yes
73 Skychargers - CA 0273-AU19-CORO GRIZ H 2 08:14:14.40 785.442 00:11:21 Yes
74 Da-Dong - WI 1681-AU19-RAC 8057-2782 BC H 2 08:14:24.70 783.499 00:11:32 Yes
75 Lopez / Saenz - CA 9090-AU19-CGR BC H 1 08:14:25.80 783.293 00:11:33 Yes
76 Bob Niemeyer - CA 0916-AU19-AUB BB H 1 08:14:36.70 781.248 00:11:44 Yes
77 R P S Loft - CA 1174-AU19-SFR Up-Up-N-away=W BB H 1 08:14:46.10 779.494 00:11:53 Yes
78 Marengo Creek Farms - AL 3226-AU19-MCF BB H 1 08:14:46.60 779.401 00:11:54 Yes
79 Cala's - NY 0117-AU19-CALA BC H 2 08:14:48.00 779.140 00:11:55 Yes
80 Watson & Williams - NV 0710-AU19-AUB DC H 2 08:14:50.30 778.713 00:11:57 Yes
81 Poorhouse Road Loft - VA 29732-AU19-ARPU DG BC H 2 08:14:51.30 778.527 00:11:58 Yes
82 Peters - GA 0002-AU19-PETE PETERS - 1 DC H 2 08:14:51.90 778.416 00:11:59 Yes
83 Poorhouse Road Loft - VA 29739-AU19-ARPU DG BB H 3 08:14:52.90 778.230 00:12:00 Yes
84 7 Cha Brothers Loft - MN 0364-AU19-UNIT 147 x Wild Midwest BB H 1 08:14:54.70 777.896 00:12:02 Yes
85 Bieche-Stevenson - CA 9301-AU19-BIE BC H 1 08:14:55.20 777.803 00:12:02 Yes
86 A-Lo-Loft - NY 2833-AU19-FOYS ☯️3958☯️ BBWF H 1 08:14:56.70 777.525 00:12:04 Yes
87 Bernardo Ibanez - CA 29390-AU19-ARPU BB H 2 08:14:59.60 776.988 00:12:07 Yes
88 Perfection Loft - KS 7081-AU19-AA BB H 2 08:15:12.10 774.682 00:12:19 Yes
89 Genesis Syndicate Loft - AZ 0766-AU19-GENS DC H 2 08:15:14.00 774.333 00:12:21 Yes
90 John Hedderson - CA 7601-AU19-FORT 1275x7143 BB H 1 08:15:18.90 773.434 00:12:26 Yes
91 Jactions Loft - CA 0806-AU19-AA BB H 2 08:15:23.00 772.683 00:12:30 Yes
92 Jack's Loft - CA 4408-AU19-JEDD BC H 1 08:15:25.50 772.226 00:12:33 Yes
93 Marengo Creek Farms - AL 3227-AU19-MCF BBWF H 2 08:15:38.80 769.803 00:12:46 Yes
94 Quejado/Fernandez - CA 0922-AU19-QUEJ BB H 3 08:15:41.10 769.385 00:12:48 Yes
95 J & M Partridge Loft - CA 1614-AU19-PASO SIL H 2 08:15:44.70 768.733 00:12:52 Yes
96 Al Shulman - CA 2527-AU19-WSJ BBWF H 2 08:15:52.50 767.323 00:13:00 Yes
97 Bob Niemeyer - CA 0931-AU19-AUB BB H 2 08:15:54.40 766.980 00:13:01 Yes
98 Stallion - CA 0816-AU19-SFPC Wichita’s Gold BB H 1 08:15:56.20 766.656 00:13:03 Yes
99 A P C Loft - TX 19041-AU19-APC BBSP H 2 08:15:57.50 766.422 00:13:05 Yes
100 Fleet Washington - DC 1911-AU19-FLET BC H 1 08:16:00.50 765.882 00:13:08 Yes

There are 426 bird records

Note: These Race Results are unofficial and subject to change until verified by the Race Committee and declared final.